| time (UTC) | temp F | wind direction | speed knots | gust knots | rain 1hr in | rain 24hr in | rain mn in | humidity % | barometer mb |
| 20260505193832 | 60 | 321 | 2.6 | 7.8 | 0.00 | 0.00 | 0.00 | 30 | 1016.2 |
| 20260505193323 | 60 | 47 | 1.7 | 9.6 | 0.00 | 0.00 | 0.00 | 34 | 1016.3 |
| 20260505192817 | 59 | 17 | 2.6 | 9.6 | 0.00 | 0.00 | 0.00 | 34 | 1016.3 |
| 20260505192316 | 58 | 123 | 1.7 | 7.0 | 0.00 | 0.00 | 0.00 | 35 | 1016.4 |
| 20260505191816 | 58 | 71 | 1.7 | 7.0 | 0.00 | 0.00 | 0.00 | 35 | 1016.4 |
| 20260505191314 | 59 | 103 | 1.7 | 7.0 | 0.00 | 0.00 | 0.00 | 35 | 1016.3 |
| 20260505190815 | 60 | 71 | 1.7 | 7.0 | 0.00 | 0.00 | 0.00 | 37 | 1016.3 |
| 20260505185813 | 58 | 336 | 2.6 | 6.1 | 0.00 | 0.00 | 0.00 | 37 | 1016.3 |
| 20260505185311 | 57 | 68 | 3.5 | 7.0 | 0.00 | 0.00 | 0.00 | 41 | 1016.5 |
| 20260505184811 | 57 | 40 | 4.3 | 8.7 | 0.00 | 0.00 | 0.00 | 39 | 1016.4 |
| 20260505184311 | 57 | 52 | 5.2 | 10.4 | 0.00 | 0.00 | 0.00 | 38 | 1016.5 |
| 20260505183310 | 56 | 67 | 2.6 | 7.8 | 0.00 | 0.00 | 0.00 | 41 | 1016.4 |
| 20260505182808 | 56 | 149 | 2.6 | 7.0 | 0.00 | 0.00 | 0.00 | 39 | 1016.4 |
| 20260505181308 | 57 | 90 | 1.7 | 14.8 | 0.00 | 0.00 | 0.00 | 39 | 1016.4 |
| 20260505180805 | 57 | 96 | 0.9 | 3.5 | 0.00 | 0.00 | 0.00 | 37 | 1016.3 |
| 20260505180302 | 56 | 107 | 2.6 | 5.2 | 0.00 | 0.00 | 0.00 | 38 | 1016.3 |
| 20260505175801 | 56 | 71 | 2.6 | 5.2 | 0.00 | 0.00 | 0.00 | 36 | 1016.4 |
| 20260505174801 | 57 | 68 | 0.9 | 3.5 | 0.00 | 0.00 | 0.00 | 36 | 1016.4 |
| 20260505174302 | 55 | 59 | 1.7 | 3.5 | 0.00 | 0.00 | 0.00 | 39 | 1016.4 |
| 20260505173802 | 56 | 329 | 1.7 | 3.5 | 0.00 | 0.00 | 0.00 | 36 | 1016.5 |
| 20260505173302 | 57 | 61 | 0.9 | 3.5 | 0.00 | 0.00 | 0.00 | 41 | 1016.4 |
| 20260505172801 | 58 | 85 | 0.9 | 5.2 | 0.00 | 0.00 | 0.00 | 37 | 1016.3 |
| 20260505172305 | 56 | 211 | 0.9 | 5.2 | 0.00 | 0.00 | 0.00 | 36 | 1016.4 |
| 20260505171801 | 55 | 187 | 0.0 | 2.6 | 0.00 | 0.00 | 0.00 | 41 | 1016.5 |
| 20260505171303 | 55 | 200 | 0.9 | 5.2 | 0.00 | 0.00 | 0.00 | 40 | 1016.5 |
| 20260505170800 | 55 | 291 | 0.9 | 5.2 | 0.00 | 0.00 | 0.00 | 40 | 1016.4 |
| 20260505170301 | 56 | 350 | 0.9 | 3.5 | 0.00 | 0.00 | 0.00 | 40 | 1016.5 |
| 20260505165802 | 56 | 26 | 1.7 | 4.3 | 0.00 | 0.00 | 0.00 | 39 | 1016.4 |
| 20260505164802 | 56 | 42 | 1.7 | 5.2 | 0.00 | 0.00 | 0.00 | 41 | 1016.5 |
| 20260505164301 | 57 | 37 | 0.9 | 4.3 | 0.00 | 0.00 | 0.00 | 38 | 1016.4 |
| 20260505163803 | 57 | 338 | 0.9 | 3.5 | 0.00 | 0.00 | 0.00 | 36 | 1016.5 |
| 20260505163302 | 57 | 331 | 0.0 | 1.7 | 0.00 | 0.00 | 0.00 | 39 | 1016.3 |
| 20260505162301 | 56 | 29 | 0.9 | 3.5 | 0.00 | 0.00 | 0.00 | 37 | 1016.4 |
| 20260505161801 | 56 | 109 | 0.9 | 2.6 | 0.00 | 0.00 | 0.00 | 36 | 1016.3 |
| 20260505161302 | 56 | 54 | 0.9 | 2.6 | 0.00 | 0.00 | 0.00 | 39 | 1016.3 |
| 20260505160301 | 56 | 71 | 0.9 | 3.5 | 0.00 | 0.00 | 0.00 | 38 | 1016.3 |
| 20260505153301 | 53 | 277 | 0.0 | 0.0 | 0.00 | 0.00 | 0.00 | 47 | 1016.4 |
| 20260505152802 | 52 | 278 | 0.0 | 0.9 | 0.00 | 0.00 | 0.00 | 47 | 1016.4 |
| 20260505152304 | 52 | 258 | 0.0 | 1.7 | 0.00 | 0.00 | 0.00 | 48 | 1016.4 |
| 20260505151302 | 51 | 312 | 0.0 | 0.9 | 0.00 | 0.00 | 0.00 | 53 | 1016.5 |
| 20260505150801 | 50 | 304 | 0.0 | 2.6 | 0.00 | 0.00 | 0.00 | 52 | 1016.5 |
| 20260505150302 | 49 | 309 | 0.0 | 2.6 | 0.00 | 0.00 | 0.00 | 50 | 1016.4 |
| 20260505140304 | 44 | 222 | 0.0 | 0.9 | 0.00 | 0.00 | 0.00 | 63 | 1016.0 |
| 20260505130303 | 44 | 40 | 0.0 | 0.9 | 0.00 | 0.00 | 0.00 | 68 | 1015.3 |
| 20260505124801 | 43 | 265 | 0.9 | 4.3 | 0.00 | 0.00 | 0.00 | 61 | 1015.2 |
| 20260505124301 | 43 | 98 | 0.9 | 2.6 | 0.00 | 0.00 | 0.00 | 66 | 1015.2 |
| 20260505123301 | 44 | 314 | 1.7 | 5.2 | 0.00 | 0.00 | 0.00 | 58 | 1015.0 |
| 20260505122803 | 44 | 217 | 0.9 | 1.7 | 0.00 | 0.00 | 0.00 | 64 | 1014.9 |
| 20260505122305 | 44 | 244 | 0.9 | 2.6 | 0.00 | 0.00 | 0.00 | 63 | 1014.9 |
| 20260505121802 | 44 | 237 | 0.9 | 2.6 | 0.00 | 0.00 | 0.00 | 66 | 1014.8 |
| 20260505120753 | 43 | 300 | 0.9 | 3.5 | 0.00 | 0.00 | 0.00 | 56 | 1014.6 |
| 20260505120255 | 43 | 280 | 0.9 | 3.5 | 0.00 | 0.00 | 0.00 | 70 | 1014.6 |
| 20260505115251 | 43 | 256 | 0.9 | 2.6 | 0.00 | 0.00 | 0.00 | 67 | 1014.6 |
| 20260505114252 | 42 | 273 | 0.9 | 2.6 | 0.00 | 0.00 | 0.00 | 71 | 1014.6 |
| 20260505113752 | 42 | 242 | 0.9 | 2.6 | 0.00 | 0.00 | 0.00 | 69 | 1014.6 |
| 20260505113251 | 42 | 238 | 0.0 | 1.7 | 0.00 | 0.00 | 0.00 | 67 | 1014.6 |
| 20260505112749 | 42 | 246 | 0.9 | 1.7 | 0.00 | 0.00 | 0.00 | 74 | 1014.8 |
| 20260505111749 | 42 | 240 | 0.9 | 1.7 | 0.00 | 0.00 | 0.00 | 72 | 1014.5 |
| 20260505110745 | 42 | 271 | 0.0 | 1.7 | 0.00 | 0.00 | 0.00 | 71 | 1014.6 |
| 20260505110246 | 42 | 243 | 0.0 | 1.7 | 0.00 | 0.00 | 0.00 | 69 | 1014.6 |
| 20260505101736 | 44 | 295 | 0.0 | 0.9 | 0.00 | 0.00 | 0.00 | 69 | 1014.6 |
| 20260505101236 | 44 | 296 | 0.0 | 0.0 | 0.00 | 0.00 | 0.00 | 63 | 1014.6 |
| 20260505100736 | 44 | 296 | 0.0 | 0.0 | 0.00 | 0.00 | 0.00 | 65 | 1014.8 |
| 20260505100235 | 44 | 296 | 0.0 | 0.9 | 0.00 | 0.00 | 0.00 | 67 | 1014.8 |
| 20260505095737 | 45 | 296 | 0.0 | 0.9 | 0.00 | 0.00 | 0.00 | 66 | 1014.6 |
| 20260505095235 | 45 | 0 | 0.0 | 0.9 | 0.00 | 0.00 | 0.00 | 66 | 1014.6 |
| 20260505094736 | 45 | 285 | 0.0 | 0.9 | 0.00 | 0.00 | 0.00 | 66 | 1014.6 |
| 20260505094235 | 45 | 284 | 0.0 | 0.9 | 0.00 | 0.00 | 0.00 | 62 | 1014.6 |
| 20260505093736 | 45 | 284 | 0.0 | 0.9 | 0.00 | 0.00 | 0.00 | 70 | 1014.6 |
| 20260505093233 | 46 | 283 | 0.9 | 1.7 | 0.00 | 0.00 | 0.00 | 69 | 1014.6 |
| 20260505092734 | 46 | 57 | 0.9 | 2.6 | 0.00 | 0.00 | 0.00 | 66 | 1014.6 |
| 20260505092233 | 46 | 225 | 0.9 | 2.6 | 0.00 | 0.00 | 0.00 | 58 | 1014.8 |
| 20260505091734 | 46 | 292 | 0.0 | 0.9 | 0.00 | 0.00 | 0.00 | 62 | 1014.6 |
| 20260505091229 | 47 | 271 | 0.9 | 1.7 | 0.00 | 0.00 | 0.00 | 59 | 1014.6 |
| 20260505090730 | 47 | 248 | 0.9 | 1.7 | 0.00 | 0.00 | 0.00 | 55 | 1014.6 |
| 20260505090224 | 49 | 284 | 0.9 | 2.6 | 0.00 | 0.00 | 0.00 | 55 | 1014.6 |
| 20260505085718 | 50 | 304 | 0.0 | 2.6 | 0.00 | 0.00 | 0.00 | 45 | 1014.6 |
| 20260505085210 | 49 | 296 | 0.0 | 2.6 | 0.00 | 0.00 | 0.00 | 42 | 1014.9 |
| 20260505084707 | 49 | 248 | 0.9 | 1.7 | 0.00 | 0.00 | 0.00 | 45 | 1014.8 |
| 20260505084207 | 49 | 231 | 0.9 | 2.6 | 0.00 | 0.00 | 0.00 | 50 | 1014.8 |
| 20260505083706 | 49 | 144 | 0.9 | 2.6 | 0.00 | 0.00 | 0.00 | 44 | 1014.8 |
| 20260505083202 | 50 | 213 | 0.9 | 10.4 | 0.00 | 0.00 | 0.00 | 46 | 1014.9 |
| 20260505082704 | 51 | 253 | 2.6 | 10.4 | 0.00 | 0.00 | 0.00 | 49 | 1014.8 |
| 20260505082202 | 51 | 50 | 5.2 | 11.3 | 0.00 | 0.00 | 0.00 | 42 | 1014.8 |
| 20260505081706 | 50 | 67 | 3.5 | 11.3 | 0.00 | 0.00 | 0.00 | 45 | 1014.8 |
| 20260505080707 | 46 | 284 | 0.9 | 2.6 | 0.00 | 0.00 | 0.00 | 64 | 1014.8 |
| 20260505080204 | 46 | 241 | 0.0 | 2.6 | 0.00 | 0.00 | 0.00 | 62 | 1014.8 |
| 20260505075706 | 46 | 275 | 0.0 | 1.7 | 0.00 | 0.00 | 0.00 | 60 | 1015.0 |
| 20260505075203 | 46 | 261 | 0.0 | 1.7 | 0.00 | 0.00 | 0.00 | 62 | 1014.8 |
| 20260505074704 | 46 | 276 | 0.0 | 1.7 | 0.00 | 0.00 | 0.00 | 63 | 1015.0 |
| 20260505074201 | 46 | 276 | 0.9 | 1.7 | 0.00 | 0.00 | 0.00 | 64 | 1015.0 |
| 20260505073703 | 46 | 232 | 0.9 | 1.7 | 0.00 | 0.00 | 0.00 | 65 | 1014.9 |
| 20260505073201 | 46 | 275 | 0.0 | 0.9 | 0.00 | 0.00 | 0.00 | 63 | 1014.6 |
| 20260505072703 | 47 | 268 | 0.0 | 1.7 | 0.00 | 0.00 | 0.00 | 61 | 1014.8 |
| 20260505072201 | 47 | 279 | 0.9 | 1.7 | 0.00 | 0.00 | 0.00 | 62 | 1014.6 |
| 20260505071703 | 48 | 261 | 0.9 | 2.6 | 0.00 | 0.00 | 0.00 | 56 | 1014.8 |
| 20260505071201 | 49 | 281 | 1.7 | 7.8 | 0.00 | 0.00 | 0.00 | 56 | 1014.8 |
| 20260505070706 | 48 | 290 | 1.7 | 7.8 | 0.00 | 0.00 | 0.00 | 57 | 1014.8 |
| 20260505070201 | 48 | 283 | 1.7 | 2.6 | 0.00 | 0.00 | 0.00 | 60 | 1014.8 |
| 20260505065702 | 48 | 238 | 0.9 | 2.6 | 0.00 | 0.00 | 0.00 | 59 | 1014.8 |
| 20260505065201 | 49 | 327 | 0.9 | 2.6 | 0.00 | 0.00 | 0.00 | 57 | 1014.5 |
| 20260505064702 | 49 | 269 | 0.9 | 2.6 | 0.00 | 0.00 | 0.00 | 54 | 1014.8 |
| 20260505064202 | 50 | 204 | 0.9 | 2.6 | 0.00 | 0.00 | 0.00 | 54 | 1014.9 |
| 20260505063201 | 50 | 63 | 0.9 | 4.3 | 0.00 | 0.00 | 0.00 | 55 | 1014.6 |
| 20260505062707 | 50 | 160 | 0.9 | 3.5 | 0.00 | 0.00 | 0.00 | 54 | 1014.6 |
| 20260505062201 | 51 | 219 | 0.9 | 3.5 | 0.00 | 0.00 | 0.00 | 52 | 1014.5 |
| 20260505061707 | 51 | 242 | 1.7 | 3.5 | 0.00 | 0.00 | 0.00 | 48 | 1014.5 |
| 20260505061201 | 52 | 324 | 1.7 | 4.3 | 0.00 | 0.00 | 0.00 | 48 | 1014.5 |
| 20260505055705 | 54 | 61 | 3.5 | 8.7 | 0.00 | 0.00 | 0.00 | 38 | 1014.5 |
| 20260505054705 | 53 | 349 | 2.6 | 9.6 | 0.00 | 0.00 | 0.00 | 44 | 1014.6 |
| 20260505054202 | 54 | 46 | 5.2 | 9.6 | 0.00 | 0.00 | 0.00 | 39 | 1014.5 |
| 20260505053659 | 54 | 39 | 5.2 | 9.6 | 0.00 | 0.00 | 0.00 | 39 | 1014.4 |
| 20260505053152 | 54 | 86 | 4.3 | 9.6 | 0.00 | 0.00 | 0.00 | 37 | 1014.2 |
| 20260505052653 | 54 | 173 | 2.6 | 9.6 | 0.00 | 0.00 | 0.00 | 45 | 1014.4 |
| 20260505052154 | 54 | 88 | 2.6 | 9.6 | 0.00 | 0.00 | 0.00 | 41 | 1014.5 |
| 20260505051148 | 54 | 67 | 4.3 | 10.4 | 0.00 | 0.00 | 0.00 | 42 | 1014.3 |
| 20260505050148 | 54 | 227 | 7.0 | 15.6 | 0.00 | 0.00 | 0.00 | 39 | 1014.3 |
| 20260505041646 | 55 | 91 | 13.9 | 19.1 | 0.00 | 0.00 | 0.00 | 45 | 1014.1 |
| 20260505041145 | 55 | 119 | 12.2 | 17.4 | 0.00 | 0.00 | 0.00 | 44 | 1013.9 |
| 20260505040646 | 54 | 75 | 13.9 | 18.2 | 0.00 | 0.00 | 0.00 | 45 | 1013.9 |
| 20260505040146 | 54 | 90 | 14.8 | 19.1 | 0.00 | 0.00 | 0.00 | 45 | 1013.9 |
| 20260505035648 | 54 | 78 | 14.8 | 20.9 | 0.00 | 0.00 | 0.00 | 45 | 1013.9 |
| 20260505035146 | 55 | 44 | 15.6 | 21.7 | 0.00 | 0.00 | 0.00 | 45 | 1013.8 |
| 20260505034644 | 55 | 74 | 14.8 | 21.7 | 0.00 | 0.00 | 0.00 | 45 | 1013.9 |
| 20260505034144 | 55 | 106 | 13.0 | 18.2 | 0.00 | 0.00 | 0.00 | 45 | 1013.7 |
| 20260505033644 | 55 | 113 | 12.2 | 18.2 | 0.00 | 0.00 | 0.00 | 44 | 1013.6 |
| 20260505033144 | 55 | 37 | 11.3 | 18.2 | 0.00 | 0.00 | 0.00 | 44 | 1013.6 |
| 20260505032643 | 55 | 95 | 11.3 | 17.4 | 0.00 | 0.00 | 0.00 | 46 | 1013.6 |
| 20260505032144 | 55 | 70 | 12.2 | 17.4 | 0.00 | 0.00 | 0.00 | 43 | 1013.6 |
| 20260505031644 | 55 | 74 | 13.0 | 18.2 | 0.00 | 0.00 | 0.00 | 44 | 1013.6 |
| 20260505031144 | 55 | 67 | 13.0 | 18.2 | 0.00 | 0.00 | 0.00 | 45 | 1013.4 |
| 20260505030646 | 55 | 66 | 11.3 | 18.2 | 0.00 | 0.00 | 0.00 | 46 | 1013.6 |
| 20260505025644 | 56 | 80 | 10.4 | 16.5 | 0.00 | 0.00 | 0.00 | 45 | 1013.3 |
| 20260505025145 | 56 | 78 | 10.4 | 16.5 | 0.00 | 0.00 | 0.00 | 44 | 1013.3 |
| 20260505024644 | 56 | 73 | 10.4 | 18.2 | 0.00 | 0.00 | 0.00 | 43 | 1013.3 |
| 20260505024144 | 56 | 84 | 11.3 | 18.2 | 0.00 | 0.00 | 0.00 | 46 | 1013.3 |
| 20260505023645 | 56 | 86 | 12.2 | 18.2 | 0.00 | 0.00 | 0.00 | 44 | 1013.3 |
| 20260505023143 | 56 | 59 | 13.9 | 19.1 | 0.00 | 0.00 | 0.00 | 45 | 1013.3 |
| 20260505022645 | 56 | 86 | 13.0 | 19.1 | 0.00 | 0.00 | 0.00 | 43 | 1013.4 |
| 20260505022143 | 56 | 69 | 12.2 | 17.4 | 0.00 | 0.00 | 0.00 | 45 | 1013.4 |
| 20260505021143 | 56 | 71 | 11.3 | 14.8 | 0.00 | 0.00 | 0.00 | 48 | 1013.2 |
| 20260505020144 | 56 | 76 | 11.3 | 20.0 | 0.00 | 0.00 | 0.00 | 47 | 1013.3 |
| 20260505015644 | 57 | 60 | 11.3 | 20.0 | 0.00 | 0.00 | 0.00 | 44 | 1013.3 |
| 20260505015145 | 57 | 96 | 11.3 | 18.2 | 0.00 | 0.00 | 0.00 | 46 | 1013.3 |
| 20260505014644 | 57 | 80 | 11.3 | 17.4 | 0.00 | 0.00 | 0.00 | 45 | 1013.4 |
| 20260505014144 | 57 | 78 | 10.4 | 17.4 | 0.00 | 0.00 | 0.00 | 44 | 1013.2 |
| 20260505013644 | 57 | 76 | 10.4 | 20.0 | 0.00 | 0.00 | 0.00 | 45 | 1013.2 |
| 20260505012640 | 57 | 88 | 12.2 | 17.4 | 0.00 | 0.00 | 0.00 | 46 | 1013.1 |
| 20260505012141 | 58 | 80 | 12.2 | 17.4 | 0.00 | 0.00 | 0.00 | 45 | 1013.1 |
| 20260505011639 | 58 | 95 | 11.3 | 17.4 | 0.00 | 0.00 | 0.00 | 44 | 1013.2 |
| 20260505011140 | 58 | 50 | 10.4 | 14.8 | 0.00 | 0.00 | 0.00 | 45 | 1013.2 |
| 20260505010640 | 58 | 77 | 9.6 | 17.4 | 0.00 | 0.00 | 0.00 | 44 | 1013.2 |
| 20260505010140 | 58 | 69 | 9.6 | 17.4 | 0.00 | 0.00 | 0.00 | 42 | 1013.0 |
| 20260505005639 | 59 | 44 | 10.4 | 16.5 | 0.00 | 0.00 | 0.00 | 44 | 1013.0 |
| 20260505005140 | 59 | 80 | 8.7 | 13.0 | 0.00 | 0.00 | 0.00 | 44 | 1013.0 |
| 20260505004636 | 59 | 70 | 8.7 | 13.0 | 0.00 | 0.00 | 0.00 | 44 | 1012.9 |
| 20260505004137 | 59 | 79 | 8.7 | 13.0 | 0.00 | 0.00 | 0.00 | 44 | 1012.9 |
| 20260505003635 | 59 | 114 | 9.6 | 14.8 | 0.00 | 0.00 | 0.00 | 45 | 1012.9 |
| 20260505003137 | 59 | 55 | 8.7 | 14.8 | 0.00 | 0.00 | 0.00 | 45 | 1013.1 |
| 20260505002637 | 60 | 82 | 7.0 | 12.2 | 0.00 | 0.00 | 0.00 | 44 | 1013.0 |
| 20260505002135 | 60 | 99 | 7.0 | 12.2 | 0.00 | 0.00 | 0.00 | 46 | 1013.0 |
| 20260505001136 | 60 | 89 | 7.0 | 12.2 | 0.00 | 0.00 | 0.00 | 44 | 1012.9 |
| 20260505000636 | 59 | 45 | 7.0 | 12.2 | 0.00 | 0.00 | 0.00 | 44 | 1012.9 |
| 20260505000130 | 59 | 105 | 7.8 | 12.2 | 0.00 | 0.00 | 0.00 | 43 | 1012.9 |
| 20260504234630 | 59 | 124 | 10.4 | 15.6 | 0.00 | 0.00 | 0.00 | 45 | 1012.9 |
| 20260504234130 | 59 | 86 | 9.6 | 15.6 | 0.00 | 0.00 | 0.00 | 44 | 1012.8 |
| 20260504233631 | 60 | 83 | 9.6 | 15.6 | 0.00 | 0.00 | 0.00 | 44 | 1012.9 |
| 20260504232632 | 60 | 46 | 11.3 | 20.0 | 0.00 | 0.00 | 0.00 | 44 | 1012.9 |
| 20260504232131 | 59 | 80 | 11.3 | 15.6 | 0.00 | 0.00 | 0.00 | 45 | 1012.9 |
| 20260504231631 | 60 | 22 | 12.2 | 19.1 | 0.00 | 0.00 | 0.00 | 46 | 1013.2 |
| 20260504231132 | 60 | 30 | 12.2 | 19.1 | 0.00 | 0.00 | 0.00 | 46 | 1013.1 |
| 20260504230631 | 60 | 60 | 11.3 | 19.1 | 0.00 | 0.00 | 0.00 | 46 | 1013.0 |
| 20260504230133 | 60 | 84 | 12.2 | 19.1 | 0.00 | 0.00 | 0.00 | 46 | 1013.1 |
| 20260504225632 | 60 | 13 | 12.2 | 18.2 | 0.00 | 0.00 | 0.00 | 44 | 1012.9 |
| 20260504225129 | 60 | 67 | 10.4 | 18.2 | 0.00 | 0.00 | 0.00 | 44 | 1012.7 |
| 20260504224629 | 60 | 44 | 11.3 | 19.1 | 0.00 | 0.00 | 0.00 | 45 | 1013.0 |
| 20260504224131 | 60 | 84 | 13.0 | 19.1 | 0.00 | 0.00 | 0.00 | 45 | 1013.1 |
| 20260504223629 | 60 | 200 | 13.0 | 19.1 | 0.00 | 0.00 | 0.00 | 43 | 1012.9 |
| 20260504223130 | 60 | 88 | 12.2 | 17.4 | 0.00 | 0.00 | 0.00 | 46 | 1012.9 |
| 20260504222629 | 60 | 11 | 11.3 | 16.5 | 0.00 | 0.00 | 0.00 | 45 | 1012.9 |
| 20260504222129 | 60 | 62 | 11.3 | 17.4 | 0.00 | 0.00 | 0.00 | 47 | 1013.0 |
| 20260504221630 | 60 | 112 | 10.4 | 17.4 | 0.00 | 0.00 | 0.00 | 43 | 1012.8 |
| 20260504221129 | 60 | 77 | 10.4 | 16.5 | 0.00 | 0.00 | 0.00 | 45 | 1013.1 |
| 20260504220117 | 60 | 91 | 10.4 | 15.6 | 0.00 | 0.00 | 0.00 | 45 | 1012.9 |
| 20260504215115 | 60 | 74 | 12.2 | 18.2 | 0.00 | 0.00 | 0.00 | 44 | 1012.9 |
| 20260504214116 | 62 | 75 | 9.6 | 14.8 | 0.00 | 0.00 | 0.00 | 42 | 1012.9 |
| 20260504213615 | 61 | 58 | 9.6 | 14.8 | 0.00 | 0.00 | 0.00 | 42 | 1012.8 |
| 20260504213115 | 61 | 67 | 7.8 | 13.9 | 0.00 | 0.00 | 0.00 | 41 | 1012.8 |
| 20260504212613 | 62 | 72 | 7.0 | 13.0 | 0.00 | 0.00 | 0.00 | 39 | 1012.7 |
| 20260504212112 | 62 | 79 | 7.0 | 13.0 | 0.00 | 0.00 | 0.00 | 41 | 1012.6 |
| 20260504211610 | 62 | 97 | 6.1 | 11.3 | 0.00 | 0.00 | 0.00 | 40 | 1012.7 |
| 20260504211107 | 62 | 70 | 5.2 | 10.4 | 0.00 | 0.00 | 0.00 | 40 | 1012.7 |
| 20260504210607 | 62 | 95 | 6.1 | 11.3 | 0.00 | 0.00 | 0.00 | 41 | 1012.7 |
| 20260504210106 | 62 | 18 | 7.8 | 11.3 | 0.00 | 0.00 | 0.00 | 43 | 1012.8 |
| 20260504205605 | 62 | 83 | 8.7 | 13.9 | 0.00 | 0.00 | 0.00 | 41 | 1012.7 |
| 20260504205105 | 62 | 86 | 7.8 | 13.9 | 0.00 | 0.00 | 0.00 | 41 | 1012.8 |
| 20260504204606 | 63 | 52 | 4.3 | 10.4 | 0.00 | 0.00 | 0.00 | 39 | 1012.9 |
| 20260504204105 | 63 | 69 | 2.6 | 7.0 | 0.00 | 0.00 | 0.00 | 38 | 1012.8 |
| 20260504203605 | 63 | 338 | 1.7 | 7.0 | 0.00 | 0.00 | 0.00 | 37 | 1012.7 |
| 20260504203102 | 63 | 38 | 3.5 | 7.8 | 0.00 | 0.00 | 0.00 | 40 | 1012.7 |
| 20260504202601 | 63 | 55 | 3.5 | 8.7 | 0.00 | 0.00 | 0.00 | 42 | 1012.7 |
| 20260504201601 | 62 | 72 | 6.1 | 9.6 | 0.00 | 0.00 | 0.00 | 42 | 1012.8 |
| 20260504201101 | 62 | 74 | 6.1 | 9.6 | 0.00 | 0.00 | 0.00 | 44 | 1012.9 |
| 20260504200601 | 62 | 51 | 4.3 | 9.6 | 0.00 | 0.00 | 0.00 | 42 | 1012.9 |
| 20260504200101 | 62 | 73 | 4.3 | 9.6 | 0.00 | 0.00 | 0.00 | 43 | 1012.8 |
| 20260504195601 | 62 | 140 | 5.2 | 10.4 | 0.00 | 0.00 | 0.00 | 42 | 1012.8 |
| 20260504194603 | 62 | 37 | 6.1 | 12.2 | 0.00 | 0.00 | 0.00 | 38 | 1012.9 |
| 20260504194101 | 64 | 70 | 4.3 | 7.8 | 0.00 | 0.00 | 0.00 | 43 | 1012.7 |